Chipley, FL

3:11 AM CST on December 10, 2016 (GMT -0600)
Chipley

Weather History for KVSH - October, 2013

Change the Weather History Date:

Saturday, October 19, 2013

  Actual Average (KDHN) Record (KDHN)
Temperature  
Mean Temperature 68 °F -  
Max Temperature 71 °F 74 °F 91 °F (2016)
Min Temperature 64 °F 52 °F 37 °F (1948)
Cooling Degree Days 2    
Growing Degree Days 18 (Base 50)    
Moisture  
Dew Point 59 °F    
Average Humidity 73    
Maximum Humidity 88    
Minimum Humidity 57    
Precipitation  
Precipitation 1.26 in - - ()
Sea Level Pressure  
Sea Level Pressure 29.98 in    
Wind  
Wind Speed 5 mph (NNE)    
Max Wind Speed 13 mph    
Max Gust Speed 23 mph    
Visibility 9 miles    
Events      
Averages and records for this station are not official NWS values.
T = Trace of Precipitation, MM = Missing Value Source: NWS Daily Summary

Daily Weather History Graph

Daily Weather History Graph

Search for Another Location

Airport or City:

Trip Planner

Search our weather history database for the weather conditions in past years. The results will help you decide how hot, cold, wet, or windy it might be!

Date:

Astronomy

Oct. 19, 2013 Rise Set
Actual Time 6:47 AM CDT 6:06 PM CDT
Civil Twilight 6:23 AM CDT 6:30 PM CDT
Nautical Twilight 5:55 AM CDT 6:58 PM CDT
Astronomical Twilight 5:27 AM CDT 7:26 PM CDT
Moon 6:38 PM CDT (10/19) 7:20 AM CDT (10/19)
Length of Visible Light 12h 07m
Length of Day
11h 18m
Waxing Gibbous, 99% of the Moon is Illuminated
Oct 19
Waxing Gibbous
Oct 26
Last Quarter
Nov 3
New
Nov 9
First Quarter
Nov 17
Full

Hourly Weather History & Observations

Time (CDT) Temp. Dew Point Humidity Pressure Visibility Wind Dir Wind Speed Gust Speed Precip Events Conditions
12:15 AM 69.8 °F 57.2 °F 64% 29.97 in 10.0 mi SE 3.5 mph - N/A   Mostly Cloudy
12:35 AM 69.8 °F 57.2 °F 64% 29.96 in 10.0 mi Calm Calm - N/A   Mostly Cloudy
12:55 AM 69.8 °F 59.0 °F 68% 29.92 in 10.0 mi ENE 5.8 mph - N/A   Mostly Cloudy
1:15 AM 69.8 °F 59.0 °F 68% 29.90 in 10.0 mi East 6.9 mph - N/A   Mostly Cloudy
1:35 AM 69.8 °F 60.8 °F 73% 29.93 in 10.0 mi Calm Calm - N/A   Scattered Clouds
1:55 AM 69.8 °F 60.8 °F 73% 29.93 in 10.0 mi Calm Calm - N/A   Mostly Cloudy
2:15 AM 69.8 °F 60.8 °F 73% 29.93 in 10.0 mi Calm Calm - N/A   Overcast
2:35 AM 69.8 °F 60.8 °F 73% 29.93 in 10.0 mi SE 3.5 mph - N/A   Overcast
2:55 AM 69.8 °F 60.8 °F 73% 29.92 in 10.0 mi East 4.6 mph - N/A   Overcast
3:15 AM 69.8 °F 60.8 °F 73% 29.92 in 10.0 mi NNE 4.6 mph - N/A   Overcast
3:35 AM 69.8 °F 60.8 °F 73% 29.92 in 10.0 mi East 3.5 mph - N/A   Overcast
3:55 AM 71.6 °F 60.8 °F 69% 29.92 in 10.0 mi ENE 3.5 mph - N/A   Overcast
4:15 AM 71.6 °F 60.8 °F 69% 29.92 in 10.0 mi Calm Calm - N/A   Overcast
4:35 AM 71.6 °F 60.8 °F 69% 29.92 in 10.0 mi NNE 4.6 mph - N/A   Overcast
4:55 AM 69.8 °F 62.6 °F 78% 29.92 in 10.0 mi NNE 4.6 mph - N/A   Overcast
5:15 AM 69.8 °F 62.6 °F 78% 29.91 in 10.0 mi NNE 4.6 mph - N/A   Overcast
5:35 AM 69.8 °F 62.6 °F 78% 29.92 in 10.0 mi North 6.9 mph - N/A   Overcast
5:55 AM 69.8 °F 62.6 °F 78% 29.93 in 10.0 mi North 10.4 mph - N/A   Overcast
6:15 AM 66.2 °F 60.8 °F 83% 29.95 in 5.0 mi North 11.5 mph 19.6 mph 0.11 in   Overcast
6:35 AM 64.4 °F 59.0 °F 83% 29.97 in 5.0 mi North 12.7 mph 16.1 mph 0.23 in   Overcast
6:55 AM 64.4 °F 59.0 °F 83% 29.97 in 5.0 mi North 12.7 mph 20.7 mph 0.36 in   Overcast
7:15 AM 64.4 °F 59.0 °F 83% 29.98 in 6.0 mi North 5.8 mph 23.0 mph 0.09 in   Overcast
7:35 AM 64.4 °F 60.8 °F 88% 29.98 in 3.0 mi NNE 9.2 mph - 0.40 in   Overcast
7:55 AM 64.4 °F 60.8 °F 88% 29.98 in 4.0 mi NNE 9.2 mph - 0.52 in   Overcast
8:15 AM 64.4 °F 60.8 °F 88% 29.99 in 4.0 mi NNE 5.8 mph - 0.10 in   Overcast
8:35 AM 64.4 °F 60.8 °F 88% 29.98 in 5.0 mi NNE 6.9 mph - 0.19 in   Mostly Cloudy
8:55 AM 66.2 °F 62.6 °F 88% 29.98 in 9.0 mi North 3.5 mph - 0.23 in   Overcast
9:15 AM 66.2 °F 62.6 °F 88% 29.98 in 10.0 mi NNE 5.8 mph - 0.01 in   Overcast
9:35 AM 66.2 °F 60.8 °F 83% 30.00 in 10.0 mi NNE 3.5 mph - 0.01 in   Overcast
9:55 AM 66.2 °F 60.8 °F 83% 30.01 in 10.0 mi ENE 3.5 mph - 0.01 in   Overcast
10:15 AM 66.2 °F 60.8 °F 83% 30.02 in 9.0 mi Calm Calm - 0.01 in   Overcast
10:35 AM 64.4 °F 60.8 °F 88% 30.01 in 5.0 mi ENE 4.6 mph - 0.04 in   Overcast
10:55 AM 64.4 °F 60.8 °F 88% 30.00 in 4.0 mi Calm Calm - 0.14 in   Overcast
11:15 AM 66.2 °F 60.8 °F 83% 30.01 in 10.0 mi North 4.6 mph - N/A   Overcast
11:35 AM 64.4 °F 60.8 °F 88% 30.01 in 10.0 mi NNE 5.8 mph - N/A   Overcast
11:55 AM 66.2 °F 60.8 °F 83% 30.01 in 10.0 mi North 4.6 mph - N/A   Overcast
12:15 PM 66.2 °F 62.6 °F 88% 30.00 in 10.0 mi NNE 5.8 mph - N/A   Overcast
12:35 PM 68.0 °F 60.8 °F 78% 29.99 in 10.0 mi North 8.1 mph - N/A   Overcast
12:55 PM 68.0 °F 60.8 °F 78% 30.00 in 10.0 mi North 8.1 mph - N/A   Overcast
1:15 PM 66.2 °F 60.8 °F 83% 29.99 in 10.0 mi North 6.9 mph - N/A   Overcast
1:35 PM 66.2 °F 60.8 °F 83% 29.98 in 10.0 mi North 5.8 mph - N/A   Overcast
1:55 PM 68.0 °F 60.8 °F 78% 29.97 in 10.0 mi NNE 5.8 mph - N/A   Overcast
2:15 PM 69.8 °F 60.8 °F 73% 29.97 in 10.0 mi NNW 6.9 mph - N/A   Overcast
2:35 PM 69.8 °F 60.8 °F 73% 29.96 in 10.0 mi NNW 6.9 mph - N/A   Overcast
2:55 PM 69.8 °F 60.8 °F 73% 29.96 in 10.0 mi North 6.9 mph - N/A   Overcast
3:15 PM 69.8 °F 60.8 °F 73% 29.96 in 10.0 mi North 4.6 mph - N/A   Overcast
3:35 PM 69.8 °F 59.0 °F 68% 29.96 in 10.0 mi North 6.9 mph - N/A   Overcast
3:55 PM 69.8 °F 59.0 °F 68% 29.96 in 10.0 mi NNE 8.1 mph - N/A   Scattered Clouds
4:15 PM 69.8 °F 59.0 °F 68% 29.96 in 10.0 mi North 8.1 mph - N/A   Mostly Cloudy
4:35 PM 69.8 °F 59.0 °F 68% 29.97 in 10.0 mi NNE 5.8 mph - N/A   Partly Cloudy
4:55 PM 71.6 °F 57.2 °F 60% 29.97 in 10.0 mi North 5.8 mph - N/A   Partly Cloudy
5:15 PM 71.6 °F 55.4 °F 57% 29.97 in 10.0 mi North 6.9 mph - N/A   Clear
5:35 PM 69.8 °F 55.4 °F 60% 29.98 in 10.0 mi North 6.9 mph - N/A   Scattered Clouds
5:55 PM 69.8 °F 55.4 °F 60% 29.98 in 10.0 mi North 6.9 mph - N/A   Mostly Cloudy
6:15 PM 69.8 °F 55.4 °F 60% 29.98 in 10.0 mi North 5.8 mph - N/A   Partly Cloudy
6:35 PM 69.8 °F 55.4 °F 60% 29.99 in 10.0 mi NNE 3.5 mph - N/A   Clear
6:55 PM 69.8 °F 55.4 °F 60% 30.00 in 10.0 mi NNE 4.6 mph - N/A   Clear
7:15 PM 69.8 °F 55.4 °F 60% 30.00 in 10.0 mi North 4.6 mph - N/A   Clear
7:35 PM 69.8 °F 55.4 °F 60% 30.01 in 10.0 mi North 4.6 mph - N/A   Clear
7:55 PM 69.8 °F 55.4 °F 60% 30.01 in 10.0 mi North 4.6 mph - N/A   Clear
8:15 PM 68.0 °F 55.4 °F 64% 30.01 in 10.0 mi Calm Calm - N/A   Clear
8:35 PM 68.0 °F 55.4 °F 64% 30.01 in 10.0 mi NNE 5.8 mph - N/A   Clear
8:55 PM 68.0 °F 55.4 °F 64% 30.01 in 10.0 mi Calm Calm - N/A   Clear
9:15 PM 68.0 °F 55.4 °F 64% 30.02 in 10.0 mi NNE 3.5 mph - N/A   Clear
9:35 PM 66.2 °F 55.4 °F 68% 30.02 in 10.0 mi Calm Calm - N/A   Clear
9:55 PM 66.2 °F 55.4 °F 68% 30.02 in 10.0 mi NNE 3.5 mph - N/A   Clear
10:15 PM 68.0 °F 55.4 °F 64% 30.03 in 10.0 mi NE 4.6 mph - N/A   Clear
10:35 PM 66.2 °F 55.4 °F 68% 30.03 in 10.0 mi NNE 4.6 mph - N/A   Clear
10:55 PM 66.2 °F 55.4 °F 68% 30.03 in 10.0 mi Calm Calm - N/A   Clear
11:15 PM 66.2 °F 55.4 °F 68% 30.02 in 10.0 mi NNE 3.5 mph - N/A   Clear
11:35 PM 66.2 °F 55.4 °F 68% 30.03 in 10.0 mi NNE 6.9 mph - N/A   Mostly Cloudy
11:55 PM 66.2 °F 57.2 °F 73% 30.02 in 10.0 mi North 9.2 mph - N/A   Mostly Cloudy